Pacific - South Coast: Past 24 Hour Conditions

 

Port Hardy Airport

01:00 PM PDT 23 September 2014
This table is a summary of hourly weather conditions for the past 24 hours.
Date / Time
(PDT)
Wind(knots) Conditions Visibility(km) Pressure(kPa) Air tempC) Relative humidity(%) Dew pointC)
23 September 2014
13:00 E 13 gust 18 Mostly Cloudy 32 100.3 14 90 13
12:00 ESE 16 gust 23 Mostly Cloudy 32 100.3 16 85 13
11:00 ESE 14 Mostly Cloudy 32 100.4 15 86 13
10:00 ESE 12 gust 17 Mostly Cloudy 32 100.4 15 88 13
9:00 ESE 15 gust 21 Mostly Cloudy 32 100.5 15 91 14
8:00 ESE 11 gust 16 Mostly Cloudy 32 100.5 14 94 13
7:00 ESE 10 Mostly Cloudy 32 100.6 14 95 13
6:00 SE 5 Mostly Cloudy 24 100.7 14 95 13
5:00 ESE 9 Mostly Cloudy 24 100.8 14 96 13
4:00 SW 2 Mostly Cloudy 16 100.9 12 99 12
3:00 N 1 Mist 6 100.9 13 99 13
2:00 SE 3 Fog 0.8 101.0 13 100 13
1:00 N 1 Mist 1 101.1 12 100 12
0:00 S 3 Mist 5 101.1 13 100 13
22 September 2014
23:00 calm Mist 5 101.1 12 100 12
22:00 N 1 Mainly Clear 24 101.1 12 99 12
21:00 S 2 Mist 2 101.1 12 99 12
20:00 NNW 3 Fog Patches 13 101.1 13 98 13
19:00 N 1 Mostly Cloudy 32 101.1 14 97 14
18:00 NNW 3 Mist 8 101.2 14 97 14
17:00 N 3 Rain 5 101.2 14 98 14
16:00 NW 5 Rain 5 101.2 14 98 14
15:00 N 5 Rain 5 101.2 14 98 14
14:00 WNW 7 Rain 5 101.3 14 98 13
13:00 WNW 4 Rain 5 101.3 14 99 14
 
Map of Pacific - South Coast marine weather areas Tsawwassen Ferry Terminal South Nomad - 46036 Sentry Shoal - 46131 South Brooks - 46132 Halibut Bank - 46146 South Moresby - 46147 South Hecate Strait - 46185 West Sea Otter - 46204 La Perouse Bank - 46206 East Dellwood - 46207 Discovery Island Esquimalt Harbour Kelp Reefs Malahat Race Rocks Lightstation Saturna Island Sheringham Point University of Victoria Victoria Gonzales Victoria Int'l Airport Ballenas Islands Campbell River Airport Comox Airport Entrance Island Fanny Island Nanaimo Airport Port Hardy Airport Sisters Islets Estevan Point Sartine Island Solander Island Tofino Airport Grief Point Powell River Airport Sechelt Cape St.James Bella Bella Airport Bella Coola Airport Cathedral Point Herbert Island Point Atkinson Sand Heads Lightstation Vancouver Harbour Vancouver Int'l Airport West Vancouver Port Alberni Howe Sound - Pam Rocks Squamish Airport